Location: Ferchesar
(52.6477°N, 12.4298°E)
Time: 05:10:10
(UTC+02:00)

Vanguard 3 - Pass Details

Date: 05 March 2021
Orbit: 508 x 3262 km, 33.3° (Epoch: 15 April)

Event Time Altitude Azimuth Distance (km) Brightness Sun altitude
Rises 20:09:40 0° 268° (W) 6,532 13.0 -20.7°
Reaches altitude 10° 20:16:41 10° 251° (WSW) 4,961 11.8 -21.7°
Maximum altitude 20:23:35 16° 220° (SW) 3,806 10.7 -22.7°
Drops below altitude 10° 20:28:59 10° 187° (S) 3,678 10.3 -23.4°
Enters shadow 20:31:08 - 175° (S) 3,890 10.4 -23.7°
Sets 20:32:58 0° 166° (SSE) 4,177 - -24.0°
